Regional Weather Roundup
Issued by NWS Little Rock, AR

Home | Current Version | Previous Version | Text Only | Print | Product List | Glossary On
Versions: 1 2 3 4 5 6 7 8 9 10 11 12 13 14 15 16 17 18 19 20 21 22 23 24 25 26 27 28 29 30 31 32 33 34 35 36 37 38 39 40 41 42 43 44 45 46 47 48 49 50
000
ASUS44 KLZK 172205
RWRLZK

WEATHER ROUNDUP FOR ARKANSAS
NATIONAL WEATHER SERVICE LITTLE ROCK AR
500 PM CDT TUE OCT 17 2017

NOTE: "FAIR" INDICATES FEW OR NO CLOUDS BELOW 12,000 FEET WITH NO
SIGNIFICANT WEATHER AND/OR OBSTRUCTIONS TO VISIBILITY.

ARZ001-003-010-029-172300-
NORTHWEST ARKANSAS

CITY           SKY/WX    TMP DP  RH WIND       PRES   REMARKS
FAYETTEVILLE   SUNNY     68  43  40 S8        30.19F
FORT SMITH     SUNNY     74  40  29 CALM      30.17F
HARRISON       SUNNY     69  34  27 S8        30.19F
BENTONVILLE    SUNNY     68  42  38 S7        30.20F
ROGERS         SUNNY     70  43  37 S10       30.19F
SILOAM SPGS    SUNNY     69  43  38 S8        30.19F
HIGHFILL       SUNNY     69  41  36 S7        30.19F
SPRINGDALE     SUNNY     70  39  32 S6        30.20F
$$

ARZ004-005-016-172300-
NORTH CENTRAL ARKANSAS

CITY           SKY/WX    TMP DP  RH WIND       PRES   REMARKS
BATESVILLE     SUNNY     69  43  38 E8        30.21F
FLIPPIN        SUNNY     71  36  27 S6        30.19F
MTN HOME       SUNNY     70  37  29 CALM      30.18F
$$

ARZ040-041-172300-
WEST CENTRAL ARKANSAS

CITY           SKY/WX    TMP DP  RH WIND       PRES   REMARKS
MENA           SUNNY     77  37  24 CALM      30.18F
MOUNT IDA      SUNNY     73  34  23 VRB5      30.17F
$$

ARZ009-017-025-026-028-172300-
NORTHEAST ARKANSAS

CITY           SKY/WX    TMP DP  RH WIND       PRES   REMARKS
CORNING        FAIR      68  43  40 CALM      30.23F
JONESBORO      SUNNY     70  39  32 S5        30.22F
NEWPORT        SUNNY     69  40  34 CALM      30.22F HAZE
WALNUT RIDGE   SUNNY     69  38  32 E5        30.22F
BLYTHEVILLE    MOSUNNY   68  43  40 E6        30.23F
$$

ARZ022-023-033-042-044-172300-
CENTRAL ARKANSAS

CITY           SKY/WX    TMP DP  RH WIND       PRES   REMARKS
LITTLE ROCK    MOSUNNY   70  41  34 E6        30.20F
JACKSONVILLE   SUNNY     73  39  29 E5        30.19F
SEARCY         SUNNY     71  42  35 CALM      30.22F
HOT SPRINGS    SUNNY     73  34  23 CALM      30.19F
RUSSELLVILLE   SUNNY     70  41  34 SE3       30.19F
CLINTON        FAIR      70  41  35 CALM      30.20F
$$

ARZ036-172300-
EAST ARKANSAS

CITY           SKY/WX    TMP DP  RH WIND       PRES   REMARKS
WEST MEMPHIS   MOSUNNY   69  43  38 S3        30.20F
$$

ARZ050-053-066-070-073-172300-
SOUTHWEST ARKANSAS

CITY           SKY/WX    TMP DP  RH WIND       PRES   REMARKS
ARKADELPHIA    FAIR      74  40  29 VRB3      30.19F
CAMDEN         SUNNY     77  34  20 E3        30.18F
TEXARKANA      SUNNY     72  38  29 E3        30.18F
EL DORADO      SUNNY     73  42  32 E7        30.19F
DE QUEEN       SUNNY     74  41  30 E5        30.16F
$$

ARZ056-057-069-172300-
SOUTHEAST ARKANSAS

CITY           SKY/WX    TMP DP  RH WIND       PRES   REMARKS
PINE BLUFF     SUNNY     73  35  25 E6        30.20F
STUTTGART      HAZE      72  38  29 E6        30.20F VSB 1/4
MONTICELLO     SUNNY     73  41  31 E6        30.20F

$$





USA.gov is the U.S. government's official web portal to all federal, state and local government web resources and services.